Time,TemperatureF,DewpointF,PressureIn,WindDirection,WindDirectionDegrees,WindSpeedMPH,WindSpeedGustMPH,Humidity,HourlyPrecipIn,Conditions,Clouds,dailyrainin,SoftwareType,DateUTC
2015-03-03 00:09:00,22.1,12.5,30.18,ESE,112,5.3,-999.0,66,-99.99,,,0.00,Acu-Link.com,2015-03-03 05:09:00,
2015-03-03 00:25:00,22.3,12.3,30.17,NE,45,2.7,-999.0,65,-99.99,,,0.00,Acu-Link.com,2015-03-03 05:25:00,
2015-03-03 00:40:00,22.1,12.2,30.15,ESE,112,2.7,-999.0,65,-99.99,,,0.00,Acu-Link.com,2015-03-03 05:40:00,
2015-03-03 00:56:00,22.3,12.3,30.16,East,90,3.2,-999.0,65,-99.99,,,0.00,Acu-Link.com,2015-03-03 05:56:00,
2015-03-03 01:11:00,22.3,12.3,30.15,East,90,3.2,-999.0,65,-99.99,,,0.00,Acu-Link.com,2015-03-03 06:11:00,
2015-03-03 01:26:00,22.6,12.6,30.14,ENE,67,4.7,-999.0,65,-99.99,,,0.00,Acu-Link.com,2015-03-03 06:26:00,
2015-03-03 01:42:00,22.8,12.8,30.13,ENE,67,4.7,-999.0,65,-99.99,,,0.00,Acu-Link.com,2015-03-03 06:42:00,
2015-03-03 01:57:00,22.8,12.8,30.13,ESE,112,2.2,-999.0,65,-99.99,,,0.00,Acu-Link.com,2015-03-03 06:57:00,
2015-03-03 02:12:00,23.0,13.0,30.12,East,90,2.2,-999.0,65,-99.99,,,0.00,Acu-Link.com,2015-03-03 07:12:00,
2015-03-03 02:27:00,23.4,13.4,30.12,ESE,112,2.7,-999.0,65,-99.99,,,0.00,Acu-Link.com,2015-03-03 07:27:00,
2015-03-03 02:42:00,23.4,13.4,30.12,SSE,157,3.2,-999.0,65,-99.99,,,0.00,Acu-Link.com,2015-03-03 07:42:00,
2015-03-03 02:57:00,23.4,13.7,30.13,SSE,157,3.2,-999.0,66,-99.99,,,0.00,Acu-Link.com,2015-03-03 07:57:00,
2015-03-03 03:12:00,23.2,13.6,30.12,ESE,112,2.7,-999.0,66,-99.99,,,0.00,Acu-Link.com,2015-03-03 08:12:00,
2015-03-03 03:28:00,23.0,13.4,30.09,ESE,112,3.2,-999.0,66,-99.99,,,0.00,Acu-Link.com,2015-03-03 08:28:00,
2015-03-03 03:43:00,23.0,13.7,30.08,ESE,112,4.7,-999.0,67,-99.99,,,0.00,Acu-Link.com,2015-03-03 08:43:00,
2015-03-03 03:58:00,23.4,13.7,30.09,ESE,112,1.7,-999.0,66,-99.99,,,0.00,Acu-Link.com,2015-03-03 08:58:00,
2015-03-03 04:13:00,23.4,13.7,30.09,East,90,1.7,-999.0,66,-99.99,,,0.00,Acu-Link.com,2015-03-03 09:13:00,
2015-03-03 04:29:00,23.4,13.7,30.08,East,90,1.7,-999.0,66,-99.99,,,0.00,Acu-Link.com,2015-03-03 09:29:00,
2015-03-03 04:44:00,23.7,14.0,30.08,NNE,22,3.7,-999.0,66,-99.99,,,0.00,Acu-Link.com,2015-03-03 09:44:00,
2015-03-03 04:59:00,23.9,14.2,30.07,NE,45,2.2,-999.0,66,-99.99,,,0.00,Acu-Link.com,2015-03-03 09:59:00,
2015-03-03 05:15:00,23.9,14.2,30.06,East,90,4.2,-999.0,66,-99.99,,,0.00,Acu-Link.com,2015-03-03 10:15:00,
2015-03-03 05:30:00,24.1,14.4,30.04,ESE,112,4.7,-999.0,66,-99.99,,,0.00,Acu-Link.com,2015-03-03 10:30:00,
2015-03-03 05:45:00,24.3,14.9,30.02,ESE,112,4.7,-999.0,67,-99.99,,,0.00,Acu-Link.com,2015-03-03 10:45:00,
2015-03-03 06:00:00,24.6,15.2,29.99,South,180,6.8,-999.0,67,-99.99,,,0.00,Acu-Link.com,2015-03-03 11:00:00,
2015-03-03 06:15:00,24.8,15.1,29.97,ESE,112,6.3,-999.0,66,-99.99,,,0.00,Acu-Link.com,2015-03-03 11:15:00,
2015-03-03 06:31:00,25.0,15.3,29.96,ESE,112,6.3,-999.0,66,-99.99,,,0.00,Acu-Link.com,2015-03-03 11:31:00,
2015-03-03 06:46:00,25.2,15.8,29.97,SSE,157,4.2,-999.0,67,-99.99,,,0.00,Acu-Link.com,2015-03-03 11:46:00,
2015-03-03 07:01:00,25.2,15.5,29.97,East,90,5.8,-999.0,66,-99.99,,,0.00,Acu-Link.com,2015-03-03 12:01:00,
2015-03-03 07:17:00,25.7,15.9,29.98,ESE,112,3.2,-999.0,66,-99.99,,,0.00,Acu-Link.com,2015-03-03 12:17:00,
2015-03-03 07:32:00,25.9,16.1,29.94,South,180,6.3,-999.0,66,-99.99,,,0.00,Acu-Link.com,2015-03-03 12:32:00,
2015-03-03 07:47:00,26.1,16.3,29.97,SSE,157,3.7,-999.0,66,-99.99,,,0.00,Acu-Link.com,2015-03-03 12:47:00,
2015-03-03 08:02:00,26.6,16.8,29.98,ESE,112,2.7,-999.0,66,-99.99,,,0.00,Acu-Link.com,2015-03-03 13:02:00,
2015-03-03 08:17:00,27.0,17.2,29.95,East,90,3.2,-999.0,66,-99.99,,,0.00,Acu-Link.com,2015-03-03 13:17:00,
2015-03-03 08:33:00,27.3,17.5,29.94,ESE,112,3.7,-999.0,66,-99.99,,,0.00,Acu-Link.com,2015-03-03 13:33:00,
2015-03-03 08:48:00,28.0,18.1,29.92,ENE,67,4.7,-999.0,66,-99.99,,,0.00,Acu-Link.com,2015-03-03 13:48:00,
2015-03-03 09:03:00,28.4,18.2,29.94,South,180,2.7,-999.0,65,-99.99,,,0.00,Acu-Link.com,2015-03-03 14:03:00,
2015-03-03 09:18:00,30.0,19.3,29.94,SSE,157,3.2,-999.0,64,-99.99,,,0.00,Acu-Link.com,2015-03-03 14:18:00,
2015-03-03 09:34:00,30.6,19.5,29.94,ESE,112,2.7,-999.0,63,-99.99,,,0.00,Acu-Link.com,2015-03-03 14:34:00,
2015-03-03 09:49:00,30.6,19.9,29.90,ESE,112,4.7,-999.0,64,-99.99,,,0.00,Acu-Link.com,2015-03-03 14:49:00,
2015-03-03 10:04:00,31.3,20.6,29.89,South,180,4.7,-999.0,64,-99.99,,,0.00,Acu-Link.com,2015-03-03 15:04:00,
2015-03-03 10:19:00,31.1,21.4,29.87,ESE,112,3.7,-999.0,67,-99.99,,,0.00,Acu-Link.com,2015-03-03 15:19:00,
2015-03-03 10:35:00,31.1,22.1,29.85,ESE,112,4.2,-999.0,69,-99.99,,,0.00,Acu-Link.com,2015-03-03 15:35:00,
2015-03-03 10:50:00,31.5,22.9,29.83,SE,135,6.3,-999.0,70,-99.99,,,0.00,Acu-Link.com,2015-03-03 15:50:00,
2015-03-03 11:05:00,32.0,23.7,29.82,ESE,112,10.4,-999.0,71,-99.99,,,0.00,Acu-Link.com,2015-03-03 16:05:00,
2015-03-03 11:20:00,32.5,25.8,29.79,ESE,112,8.3,-999.0,76,-99.99,,,0.00,Acu-Link.com,2015-03-03 16:20:00,
2015-03-03 11:35:00,32.2,27.0,29.78,South,180,14.5,-999.0,81,-99.99,,,0.01,Acu-Link.com,2015-03-03 16:35:00,
2015-03-03 11:50:00,32.9,29.2,29.77,SSE,157,12.5,-999.0,86,-99.99,,,0.01,Acu-Link.com,2015-03-03 16:50:00,
2015-03-03 12:05:00,33.3,29.6,29.75,South,180,17.6,-999.0,86,-99.99,,,0.01,Acu-Link.com,2015-03-03 17:05:00,
2015-03-03 12:20:00,33.4,30.5,29.73,South,180,14.5,-999.0,89,-99.99,,,0.02,Acu-Link.com,2015-03-03 17:20:00,
2015-03-03 12:35:00,34.2,32.1,29.71,South,180,19.1,-999.0,92,-99.99,,,0.05,Acu-Link.com,2015-03-03 17:35:00,
2015-03-03 12:50:00,34.9,33.1,29.72,South,180,10.9,-999.0,93,-99.99,,,0.07,Acu-Link.com,2015-03-03 17:50:00,
2015-03-03 13:06:00,35.2,33.9,29.69,South,180,12.5,-999.0,95,-99.99,,,0.11,Acu-Link.com,2015-03-03 18:06:00,
2015-03-03 13:21:00,36.5,35.2,29.68,South,180,14.5,-999.0,95,-99.99,,,0.15,Acu-Link.com,2015-03-03 18:21:00,
2015-03-03 13:36:00,36.9,35.6,29.66,SSE,157,9.9,-999.0,95,-99.99,,,0.16,Acu-Link.com,2015-03-03 18:36:00,
2015-03-03 13:51:00,37.0,36.0,29.65,South,180,11.4,-999.0,96,-99.99,,,0.17,Acu-Link.com,2015-03-03 18:51:00,
2015-03-03 14:06:00,38.1,37.1,29.64,South,180,13.5,-999.0,96,-99.99,,,0.18,Acu-Link.com,2015-03-03 19:06:00,
2015-03-03 14:21:00,39.4,38.6,29.63,South,180,14.5,-999.0,97,-99.99,,,0.19,Acu-Link.com,2015-03-03 19:21:00,
2015-03-03 14:36:00,40.3,39.5,29.62,SSW,202,10.4,-999.0,97,-99.99,,,0.22,Acu-Link.com,2015-03-03 19:36:00,
2015-03-03 14:51:00,40.8,40.3,29.61,South,180,13.0,-999.0,98,-99.99,,,0.24,Acu-Link.com,2015-03-03 19:51:00,
2015-03-03 15:06:00,41.7,41.2,29.60,South,180,17.6,-999.0,98,-99.99,,,0.26,Acu-Link.com,2015-03-03 20:06:00,
2015-03-03 15:22:00,41.5,41.0,29.60,South,180,13.0,-999.0,98,-99.99,,,0.28,Acu-Link.com,2015-03-03 20:22:00,
2015-03-03 15:37:00,42.3,41.8,29.61,SSW,202,6.8,-999.0,98,-99.99,,,0.31,Acu-Link.com,2015-03-03 20:37:00,
2015-03-03 15:53:00,42.6,42.1,29.62,South,180,9.4,-999.0,98,-99.99,,,0.32,Acu-Link.com,2015-03-03 20:53:00,
2015-03-03 16:08:00,42.6,42.1,29.61,South,180,6.8,-999.0,98,-99.99,,,0.32,Acu-Link.com,2015-03-03 21:08:00,
2015-03-03 16:23:00,42.8,42.3,29.60,South,180,11.9,-999.0,98,-99.99,,,0.32,Acu-Link.com,2015-03-03 21:23:00,
2015-03-03 16:38:00,42.8,42.3,29.60,South,180,9.4,-999.0,98,-99.99,,,0.32,Acu-Link.com,2015-03-03 21:38:00,
2015-03-03 16:53:00,43.2,42.7,29.60,South,180,8.9,-999.0,98,-99.99,,,0.32,Acu-Link.com,2015-03-03 21:53:00,
2015-03-03 17:08:00,43.0,42.7,29.61,South,180,6.3,-999.0,99,-99.99,,,0.32,Acu-Link.com,2015-03-03 22:08:00,
2015-03-03 17:23:00,43.2,42.9,29.60,South,180,5.8,-999.0,99,-99.99,,,0.32,Acu-Link.com,2015-03-03 22:23:00,
2015-03-03 17:38:00,43.7,43.4,29.60,SSW,202,5.8,-999.0,99,-99.99,,,0.33,Acu-Link.com,2015-03-03 22:38:00,
2015-03-03 17:53:00,44.2,43.9,29.61,SW,225,6.3,-999.0,99,-99.99,,,0.34,Acu-Link.com,2015-03-03 22:53:00,
2015-03-03 18:08:00,45.1,44.8,29.61,SW,225,5.8,-999.0,99,-99.99,,,0.35,Acu-Link.com,2015-03-03 23:08:00,
2015-03-03 18:23:00,45.9,45.6,29.61,SW,225,11.4,-999.0,99,-99.99,,,0.37,Acu-Link.com,2015-03-03 23:23:00,
2015-03-03 18:39:00,46.2,45.9,29.62,SW,225,10.9,-999.0,99,-99.99,,,0.37,Acu-Link.com,2015-03-03 23:39:00,
2015-03-03 18:54:00,46.2,45.9,29.62,West,270,6.8,-999.0,99,-99.99,,,0.38,Acu-Link.com,2015-03-03 23:54:00,
2015-03-03 19:09:00,46.4,46.1,29.63,SW,225,8.9,-999.0,99,-99.99,,,0.38,Acu-Link.com,2015-03-04 00:09:00,
2015-03-03 19:25:00,46.0,45.7,29.64,WSW,247,13.0,-999.0,99,-99.99,,,0.38,Acu-Link.com,2015-03-04 00:25:00,
2015-03-03 19:40:00,45.9,45.6,29.63,SSW,202,6.8,-999.0,99,-99.99,,,0.38,Acu-Link.com,2015-03-04 00:40:00,
2015-03-03 19:55:00,45.5,45.0,29.66,SW,225,5.3,-999.0,98,-99.99,,,0.39,Acu-Link.com,2015-03-04 00:55:00,
2015-03-03 20:10:00,45.3,44.8,29.66,South,180,6.8,-999.0,98,-99.99,,,0.39,Acu-Link.com,2015-03-04 01:10:00,
2015-03-03 20:25:00,44.4,43.9,29.66,West,270,6.3,-999.0,98,-99.99,,,0.39,Acu-Link.com,2015-03-04 01:25:00,
2015-03-03 20:40:00,43.2,42.7,29.67,West,270,10.9,-999.0,98,-99.99,,,0.39,Acu-Link.com,2015-03-04 01:40:00,
2015-03-03 20:55:00,42.1,41.6,29.68,West,270,13.0,-999.0,98,-99.99,,,0.40,Acu-Link.com,2015-03-04 01:55:00,
2015-03-03 21:10:00,41.5,40.7,29.69,West,270,13.5,-999.0,97,-99.99,,,0.41,Acu-Link.com,2015-03-04 02:10:00,
2015-03-03 21:26:00,41.4,40.6,29.68,WSW,247,4.2,-999.0,97,-99.99,,,0.41,Acu-Link.com,2015-03-04 02:26:00,
2015-03-03 21:41:00,41.0,40.2,29.68,West,270,9.4,-999.0,97,-99.99,,,0.42,Acu-Link.com,2015-03-04 02:41:00,
2015-03-03 21:56:00,40.6,39.8,29.68,West,270,6.8,-999.0,97,-99.99,,,0.44,Acu-Link.com,2015-03-04 02:56:00,
2015-03-03 22:11:00,40.3,39.5,29.69,SSE,157,4.7,-999.0,97,-99.99,,,0.46,Acu-Link.com,2015-03-04 03:11:00,
2015-03-03 22:26:00,39.9,39.1,29.70,West,270,7.3,-999.0,97,-99.99,,,0.50,Acu-Link.com,2015-03-04 03:26:00,
2015-03-03 22:41:00,39.6,38.8,29.71,West,270,8.9,-999.0,97,-99.99,,,0.51,Acu-Link.com,2015-03-04 03:41:00,
2015-03-03 23:12:00,38.8,38.0,29.71,West,270,7.3,-999.0,97,-99.99,,,0.52,Acu-Link.com,2015-03-04 04:12:00,
2015-03-03 23:27:00,38.7,37.9,29.72,West,270,3.7,-999.0,97,-99.99,,,0.53,Acu-Link.com,2015-03-04 04:27:00,
2015-03-03 23:43:00,38.3,37.5,29.73,SW,225,3.7,-999.0,97,-99.99,,,0.55,Acu-Link.com,2015-03-04 04:43:00,